Location: Courcelles
(49.2596°N, 1.7419°E)
Time: 02:10:09
(UTC+00:00)

Cosmos 841 Rocket - Pass Details

Date: 17 November 2025
Orbit: 742 x 768 km, 74.0° (Epoch: 04 December)

Event Time Altitude Azimuth Distance (km) Brightness Sun altitude
Rises 18:06:46 0° 338° (NNW) 3,248 6.9 -19.0°
Reaches altitude 10° 18:09:11 10° 342° (NNW) 2,319 6.1 -19.4°
Maximum altitude 18:14:25 63° 63° (ENE) 857 3.4 -20.2°
Enters shadow 18:17:14 27° 137° (SE) 1,445 4.6 -20.7°
